This is the latest recevied weather packets stored in our database for station/object KD2RHT-13. If no packets are shown the sender has not sent any weather packets the latest 10 day(s).
| Time | Temp. | Humidity | Pressure | Rain* | Wind** | Luminosity | Snow |
|---|---|---|---|---|---|---|---|
| 1777915040 | 21.11° C | 51% | 1007.7 hPa | 0 mm | - | 661 W/m² | - |
| 1777914737 | 21.11° C | 54% | 1007.7 hPa | 0 mm | - | 728 W/m² | - |
| 1777914433 | 20.56° C | 50% | 1007.7 hPa | 0 mm | - | 705 W/m² | - |
| 1777914131 | 21.11° C | 55% | 1007.7 hPa | 0 mm | - | 699 W/m² | - |
| 1777913827 | 20.56° C | 51% | 1007.7 hPa | 0 mm | - | 704 W/m² | - |
| 1777913523 | 20° C | 53% | 1008 hPa | 0 mm | - | 723 W/m² | - |
| 1777913220 | 21.11° C | 50% | 1008 hPa | 0 mm | - | 722 W/m² | - |
| 1777912916 | 20.56° C | 57% | 1008 hPa | 0 mm | - | 707 W/m² | - |
| 1777912613 | 20.56° C | 55% | 1008 hPa | 0 mm | - | 716 W/m² | - |
| 1777912309 | 20° C | 51% | 1008 hPa | 0 mm | - | 729 W/m² | - |
| 1777912005 | 19.44° C | 53% | 1008 hPa | 0 mm | - | 727 W/m² | - |
| 1777911701 | 19.44° C | 53% | 1008.3 hPa | 0 mm | - | 715 W/m² | - |
| 1777911398 | 19.44° C | 53% | 1008 hPa | 0 mm | - | 719 W/m² | - |
| 1777911096 | 19.44° C | 54% | 1008.3 hPa | 0 mm | - | 738 W/m² | - |
| 1777910793 | 19.44° C | 52% | 1008.3 hPa | 0 mm | - | 735 W/m² | - |
| 1777910489 | 19.44° C | 54% | 1008.3 hPa | 0 mm | - | 740 W/m² | - |
| 1777910186 | 19.44° C | 54% | 1008 hPa | 0 mm | - | 757 W/m² | - |
| 1777909883 | 18.89° C | 52% | 1008.3 hPa | 0 mm | - | 772 W/m² | - |
| 1777909580 | 18.89° C | 53% | 1008.3 hPa | 0 mm | - | 796 W/m² | - |
| 1777909277 | 18.33° C | 54% | 1008.7 hPa | 0 mm | - | 802 W/m² | - |
| 1777908975 | 18.33° C | 53% | 1008.7 hPa | 0 mm | - | 816 W/m² | - |
| 1777908674 | 18.89° C | 52% | 1008.7 hPa | 0 mm | - | 824 W/m² | - |
| 1777908370 | 18.33° C | 56% | 1009 hPa | 0 mm | - | 807 W/m² | - |
| 1777908066 | 18.89° C | 56% | 1008.7 hPa | 0 mm | - | 805 W/m² | - |
| 1777907762 | 17.78° C | 57% | 1008.7 hPa | 0 mm | - | 791 W/m² | - |
* Rain latest hour (hover to see other rain measurements)
** Current wind speed in m/s (hover to see current wind gust speed)